THY7SK LTBJ-DAOO

Flight info

Callsign THY7SK
Flight time 3h 28m
Altitude 34000
Route SITRU1T/34L SITRU UR20 KEA DCT BERAP UA145 LORNO DCT ABAKO DCT NELDA DCT SONAK UM978 TUC UW254 DIMAO UZ888 YEMZO
Aircraft A321/M-SDE3FGHIRWY/LB1

Departure

Time 2026-04-27 16:51
Airport Adnan Menderes International Airport (LTBJ)

Arrival

Time 2026-04-27 20:19
Airport Oran Es-Sénia (Ahmed Ben Bella) International Airport (DAOO)
Time Latitude Longitude Altitude Speed Heading
2026-04-27 16:25 38.29246 27.15071 414 ft 0 kts 256°
2026-04-27 16:37 38.29246 27.15072 414 ft 0 kts 256°
2026-04-27 16:37 38.29248 27.15082 414 ft 2 kts 257°
2026-04-27 16:37 38.29252 27.15101 413 ft 2 kts 256°
2026-04-27 16:38 38.29255 27.15119 413 ft 2 kts 257°
2026-04-27 16:38 38.29257 27.15131 412 ft 2 kts 255°
2026-04-27 16:38 38.29266 27.15146 412 ft 2 kts 208°
2026-04-27 16:38 38.29281 27.15151 411 ft 1 kts 172°
2026-04-27 16:39 38.29286 27.15149 411 ft 1 kts 163°
2026-04-27 16:39 38.29289 27.15148 411 ft 0 kts 166°
2026-04-27 16:42 38.29264 27.15156 412 ft 6 kts 166°
2026-04-27 16:42 38.29230 27.15167 413 ft 1 kts 165°
2026-04-27 16:42 38.29223 27.15169 414 ft 3 kts 170°
2026-04-27 16:42 38.29190 27.15177 415 ft 3 kts 167°
2026-04-27 16:43 38.29151 27.15188 417 ft 5 kts 167°
2026-04-27 16:43 38.29120 27.15197 418 ft 4 kts 167°
2026-04-27 16:43 38.29057 27.15216 420 ft 9 kts 167°
2026-04-27 16:43 38.29029 27.15225 420 ft 2 kts 163°
2026-04-27 16:44 38.29017 27.15236 420 ft 0 kts 130°
2026-04-27 16:44 38.29011 27.15251 419 ft 1 kts 104°
2026-04-27 16:44 38.29011 27.15275 419 ft 2 kts 103°
2026-04-27 16:44 38.28997 27.15296 418 ft 3 kts 145°
2026-04-27 16:45 38.28969 27.15310 417 ft 5 kts 166°
2026-04-27 16:45 38.28895 27.15332 416 ft 15 kts 167°
2026-04-27 16:45 38.28787 27.15364 416 ft 15 kts 166°
2026-04-27 16:45 38.28680 27.15397 416 ft 15 kts 166°
2026-04-27 16:46 38.28574 27.15428 415 ft 16 kts 167°
2026-04-27 16:46 38.28482 27.15456 413 ft 13 kts 166°
2026-04-27 16:46 38.28378 27.15488 409 ft 16 kts 166°
2026-04-27 16:46 38.28270 27.15520 407 ft 13 kts 166°
2026-04-27 16:47 38.28185 27.15545 405 ft 9 kts 167°
2026-04-27 16:47 38.28127 27.15563 402 ft 4 kts 166°
2026-04-27 16:47 38.28102 27.15573 401 ft 3 kts 136°
2026-04-27 16:47 38.28094 27.15601 401 ft 0 kts 91°
2026-04-27 16:48 38.28100 27.15635 400 ft 10 kts 77°
2026-04-27 16:48 38.28115 27.15721 398 ft 9 kts 76°
2026-04-27 16:48 38.28125 27.15770 398 ft 3 kts 75°
2026-04-27 16:49 38.28156 27.15800 398 ft 2 kts
2026-04-27 16:49 38.28173 27.15800 399 ft 4 kts 353°
2026-04-27 16:49 38.28186 27.15797 399 ft 0 kts 347°
2026-04-27 16:50 38.28189 27.15796 399 ft 4 kts 346°
2026-04-27 16:50 38.28446 27.15719 407 ft 72 kts 346°
2026-04-27 16:50 38.29147 27.15508 413 ft 133 kts 346°
2026-04-27 16:50 38.30211 27.15192 602 ft 168 kts 347°
2026-04-27 16:51 38.31242 27.14904 1496 ft 148 kts 348°
2026-04-27 16:51 38.32281 27.14593 1787 ft 159 kts 348°
2026-04-27 16:51 38.33344 27.14279 2275 ft 154 kts 349°
2026-04-27 16:51 38.34410 27.13988 2583 ft 162 kts 351°
2026-04-27 16:52 38.35557 27.13688 2835 ft 174 kts 351°
2026-04-27 16:52 38.36779 27.13364 3092 ft 187 kts 351°
2026-04-27 16:52 38.38049 27.12783 3333 ft 205 kts 329°
2026-04-27 16:52 38.38974 27.11260 3532 ft 234 kts 294°
2026-04-27 16:53 38.39133 27.09123 3776 ft 258 kts 269°
2026-04-27 16:53 38.38997 27.06777 4098 ft 272 kts 270°
2026-04-27 16:53 38.38887 27.04315 4631 ft 278 kts 270°
2026-04-27 16:53 38.38582 27.01909 5245 ft 283 kts 257°
2026-04-27 16:54 38.37855 26.99547 5886 ft 286 kts 247°
2026-04-27 16:54 38.36978 26.97288 6476 ft 288 kts 245°
2026-04-27 16:54 38.36064 26.95007 7084 ft 290 kts 245°
2026-04-27 16:54 38.35153 26.92708 7713 ft 291 kts 245°
2026-04-27 16:55 38.34251 26.90400 8319 ft 293 kts 246°
2026-04-27 16:55 38.33357 26.88096 8894 ft 293 kts 246°
2026-04-27 16:55 38.32454 26.85758 9515 ft 294 kts 246°
2026-04-27 16:55 38.31553 26.83426 10089 ft 295 kts 246°
2026-04-27 16:56 38.30644 26.81069 10476 ft 303 kts 246°
2026-04-27 16:56 38.29700 26.78620 10723 ft 316 kts 246°
2026-04-27 16:56 38.28708 26.76048 10961 ft 329 kts 246°
2026-04-27 16:56 38.27685 26.73406 11215 ft 341 kts 246°
2026-04-27 16:57 38.26616 26.70650 11542 ft 350 kts 246°
2026-04-27 16:57 38.25547 26.67897 12026 ft 353 kts 246°
2026-04-27 16:57 38.24454 26.65081 12547 ft 355 kts 246°
2026-04-27 16:57 38.23367 26.62283 13051 ft 357 kts 246°
2026-04-27 16:58 38.22256 26.59424 13549 ft 359 kts 246°
2026-04-27 16:58 38.21155 26.56594 14019 ft 361 kts 246°
2026-04-27 16:58 38.20034 26.53716 14491 ft 363 kts 246°
2026-04-27 16:58 38.18911 26.50838 14974 ft 365 kts 246°
2026-04-27 16:59 38.17782 26.47950 15449 ft 367 kts 246°
2026-04-27 16:59 38.16645 26.45045 15902 ft 369 kts 246°
2026-04-27 16:59 38.15495 26.42109 16357 ft 371 kts 246°
2026-04-27 16:59 38.14346 26.39175 16815 ft 372 kts 246°
2026-04-27 17:00 38.12412 26.34242 17549 ft 375 kts 245°
2026-04-27 17:00 38.10923 26.30224 18111 ft 377 kts 249°
2026-04-27 17:00 38.09981 26.27139 18522 ft 379 kts 252°
2026-04-27 17:01 38.09126 26.23946 18920 ft 380 kts 253°
2026-04-27 17:01 38.08285 26.20760 19273 ft 383 kts 253°
2026-04-27 17:01 38.07438 26.17555 19681 ft 385 kts 253°
2026-04-27 17:01 38.06595 26.14371 20073 ft 386 kts 253°
2026-04-27 17:02 38.05734 26.11130 20457 ft 388 kts 253°
2026-04-27 17:02 38.04870 26.07885 20835 ft 389 kts 253°
2026-04-27 17:02 38.04005 26.04642 21204 ft 391 kts 253°
2026-04-27 17:02 38.03130 26.01367 21564 ft 392 kts 253°
2026-04-27 17:03 38.02255 25.98098 21907 ft 394 kts 253°
2026-04-27 17:03 38.01373 25.94806 22236 ft 396 kts 253°
2026-04-27 17:03 38.00494 25.91529 22564 ft 397 kts 253°
2026-04-27 17:03 37.99604 25.88217 22894 ft 399 kts 253°
2026-04-27 17:04 37.98704 25.84866 23215 ft 400 kts 253°
2026-04-27 17:04 37.97813 25.81552 23531 ft 402 kts 253°
2026-04-27 17:04 37.96909 25.78202 23824 ft 403 kts 253°
2026-04-27 17:04 37.96003 25.74845 24108 ft 405 kts 253°
2026-04-27 17:05 37.95089 25.71466 24376 ft 407 kts 253°
2026-04-27 17:05 37.94174 25.68091 24651 ft 409 kts 253°
2026-04-27 17:05 37.93243 25.64660 24921 ft 411 kts 253°
2026-04-27 17:05 37.92632 25.62408 25090 ft 412 kts 253°
2026-04-27 17:06 37.91392 25.57841 25428 ft 414 kts 253°
2026-04-27 17:06 37.90452 25.54386 25674 ft 416 kts 253°
2026-04-27 17:06 37.89507 25.50916 25914 ft 417 kts 253°
2026-04-27 17:06 37.88556 25.47430 26146 ft 419 kts 253°
2026-04-27 17:07 37.87613 25.43981 26377 ft 420 kts 253°
2026-04-27 17:07 37.86656 25.40484 26608 ft 422 kts 253°
2026-04-27 17:07 37.85690 25.36959 26826 ft 424 kts 253°
2026-04-27 17:07 37.84733 25.33475 27044 ft 425 kts 252°
2026-04-27 17:08 37.83750 25.29893 27254 ft 427 kts 252°
2026-04-27 17:08 37.82773 25.26342 27465 ft 428 kts 252°
2026-04-27 17:08 37.81805 25.22826 27665 ft 430 kts 252°
2026-04-27 17:08 37.80819 25.19251 27859 ft 432 kts 252°
2026-04-27 17:09 37.79834 25.15683 28055 ft 433 kts 252°
2026-04-27 17:09 37.78842 25.12098 28257 ft 434 kts 252°
2026-04-27 17:09 37.77845 25.08501 28455 ft 435 kts 252°
2026-04-27 17:09 37.76847 25.04898 28647 ft 436 kts 252°
2026-04-27 17:10 37.75840 25.01275 28831 ft 438 kts 252°
2026-04-27 17:10 37.74828 24.97641 29004 ft 439 kts 252°
2026-04-27 17:10 37.73817 24.94013 29216 ft 439 kts 252°
2026-04-27 17:10 37.72807 24.90396 29483 ft 438 kts 252°
2026-04-27 17:11 37.71799 24.86785 29744 ft 437 kts 252°
2026-04-27 17:11 37.69785 24.79593 30194 ft 436 kts 253°
2026-04-27 17:11 37.68768 24.75965 30429 ft 435 kts 252°
2026-04-27 17:12 37.66754 24.68792 30844 ft 434 kts 252°
2026-04-27 17:12 37.65746 24.65212 31046 ft 434 kts 252°
2026-04-27 17:12 37.64744 24.61660 31247 ft 433 kts 252°
2026-04-27 17:13 37.63731 24.58078 31366 ft 435 kts 252°
2026-04-27 17:13 37.61693 24.50875 31492 ft 440 kts 252°
2026-04-27 17:13 37.60663 24.47248 31780 ft 436 kts 252°
2026-04-27 17:14 37.59652 24.43696 32194 ft 430 kts 253°
2026-04-27 17:14 37.58655 24.40188 32610 ft 423 kts 253°
2026-04-27 17:14 37.57725 24.36696 33028 ft 416 kts 255°
2026-04-27 17:14 37.56945 24.33223 33447 ft 408 kts 257°
2026-04-27 17:15 37.56319 24.29798 33865 ft 401 kts 260°
2026-04-27 17:15 37.55824 24.26335 34077 ft 399 kts 263°
2026-04-27 17:15 37.55467 24.22875 34082 ft 401 kts 266°
2026-04-27 17:16 37.55088 24.15864 34086 ft 407 kts 268°
2026-04-27 17:16 37.54771 24.08666 34085 ft 414 kts 268°
2026-04-27 17:17 37.54447 24.01438 34091 ft 419 kts 268°
2026-04-27 17:17 37.54108 23.94044 34087 ft 425 kts 268°
2026-04-27 17:18 37.53584 23.82838 34092 ft 433 kts 268°
2026-04-27 17:18 37.53222 23.75218 34097 ft 438 kts 268°
2026-04-27 17:19 37.52851 23.67551 34093 ft 440 kts 268°
2026-04-27 17:19 37.52476 23.59889 34098 ft 439 kts 268°
2026-04-27 17:20 37.52097 23.52250 34100 ft 439 kts 268°
2026-04-27 17:20 37.51712 23.44605 34102 ft 439 kts 268°
2026-04-27 17:21 37.51320 23.36911 34107 ft 438 kts 268°
2026-04-27 17:21 37.50953 23.29291 34113 ft 437 kts 270°
2026-04-27 17:22 37.50898 23.21675 34121 ft 436 kts 271°
2026-04-27 17:22 37.50873 23.14023 34120 ft 436 kts 271°
2026-04-27 17:23 37.50822 23.06449 34122 ft 435 kts 271°
2026-04-27 17:23 37.50756 22.98855 34110 ft 435 kts 271°
2026-04-27 17:24 37.50679 22.91230 34108 ft 434 kts 271°
2026-04-27 17:24 37.50596 22.83675 34105 ft 434 kts 271°
2026-04-27 17:25 37.50507 22.76097 34109 ft 434 kts 271°
2026-04-27 17:25 37.50414 22.68522 34100 ft 435 kts 271°
2026-04-27 17:26 37.50316 22.60949 34118 ft 434 kts 271°
2026-04-27 17:26 37.50212 22.53363 34115 ft 433 kts 271°
2026-04-27 17:27 37.50104 22.45819 34125 ft 432 kts 271°
2026-04-27 17:27 37.49991 22.38236 34128 ft 433 kts 271°
2026-04-27 17:28 37.49873 22.30670 34131 ft 433 kts 270°
2026-04-27 17:29 37.49688 22.19343 34122 ft 432 kts 270°
2026-04-27 17:29 37.49560 22.11848 34117 ft 432 kts 270°
2026-04-27 17:30 37.49426 22.04291 34119 ft 431 kts 270°
2026-04-27 17:30 37.49216 21.93030 34102 ft 431 kts 270°
2026-04-27 17:31 37.49071 21.85498 34113 ft 432 kts 270°
2026-04-27 17:31 37.48920 21.77950 34119 ft 432 kts 270°
2026-04-27 17:32 37.48686 21.66657 34118 ft 432 kts 270°
2026-04-27 17:33 37.48523 21.59087 34108 ft 431 kts 270°
2026-04-27 17:33 37.48355 21.51566 34094 ft 432 kts 270°
2026-04-27 17:34 37.48182 21.44015 34081 ft 433 kts 270°
2026-04-27 17:34 37.48005 21.36453 34077 ft 433 kts 270°
2026-04-27 17:35 37.47854 21.30174 34078 ft 433 kts 270°
2026-04-27 17:35 37.47637 21.21367 34082 ft 433 kts 269°
2026-04-27 17:36 37.47446 21.13854 34082 ft 434 kts 269°
2026-04-27 17:36 37.47249 21.06274 34084 ft 434 kts 269°
2026-04-27 17:37 37.47047 20.98703 34085 ft 434 kts 269°
2026-04-27 17:37 37.46841 20.91125 34086 ft 434 kts 269°
2026-04-27 17:38 37.46627 20.83536 34086 ft 434 kts 270°
2026-04-27 17:38 37.46411 20.75969 34085 ft 434 kts 269°
2026-04-27 17:39 37.46191 20.68449 34088 ft 433 kts 270°
2026-04-27 17:39 37.45966 20.60908 34087 ft 433 kts 270°
2026-04-27 17:40 37.45735 20.53334 34087 ft 434 kts 270°
2026-04-27 17:40 37.45499 20.45743 34085 ft 435 kts 270°
2026-04-27 17:41 37.45258 20.38171 34089 ft 434 kts 270°
2026-04-27 17:41 37.45012 20.30624 34088 ft 435 kts 269°
2026-04-27 17:42 37.44761 20.23015 34088 ft 435 kts 269°
2026-04-27 17:42 37.44508 20.15471 34087 ft 434 kts 269°
2026-04-27 17:43 37.44247 20.07872 34087 ft 434 kts 269°
2026-04-27 17:43 37.43984 20.00357 34088 ft 434 kts 269°
2026-04-27 17:44 37.43713 19.92767 34085 ft 434 kts 269°
2026-04-27 17:44 37.43438 19.85180 34086 ft 434 kts 269°
2026-04-27 17:45 37.43160 19.77641 34085 ft 435 kts 269°
2026-04-27 17:45 37.42874 19.70051 34085 ft 434 kts 269°
2026-04-27 17:46 37.42585 19.62473 34085 ft 434 kts 269°
2026-04-27 17:46 37.42292 19.54922 34085 ft 434 kts 269°
2026-04-27 17:47 37.41994 19.47389 34085 ft 434 kts 269°
2026-04-27 17:47 37.41690 19.39835 34085 ft 434 kts 269°
2026-04-27 17:48 37.41382 19.32294 34085 ft 433 kts 269°
2026-04-27 17:48 37.41067 19.24707 34085 ft 434 kts 269°
2026-04-27 17:49 37.40749 19.17159 34085 ft 434 kts 269°
2026-04-27 17:49 37.40425 19.09629 34084 ft 434 kts 269°
2026-04-27 17:50 37.40149 19.03305 34085 ft 434 kts 269°
2026-04-27 17:50 37.39248 18.90766 34086 ft 434 kts 266°
2026-04-27 17:51 37.38618 18.83218 34087 ft 434 kts 266°
2026-04-27 17:51 37.37986 18.75729 34087 ft 434 kts 266°
2026-04-27 17:52 37.37350 18.68223 34088 ft 433 kts 266°
2026-04-27 17:52 37.36813 18.61947 34085 ft 433 kts 266°
2026-04-27 17:53 37.36062 18.53223 34086 ft 433 kts 266°
2026-04-27 17:53 37.35407 18.45699 34084 ft 434 kts 266°
2026-04-27 17:54 37.34750 18.38201 34087 ft 434 kts 266°
2026-04-27 17:54 37.34086 18.30671 34086 ft 434 kts 265°
2026-04-27 17:55 37.33420 18.23166 34084 ft 434 kts 265°
2026-04-27 17:55 37.32750 18.15670 34084 ft 434 kts 265°
2026-04-27 17:56 37.32073 18.08163 34086 ft 434 kts 265°
2026-04-27 17:56 37.31388 18.00635 34082 ft 434 kts 265°
2026-04-27 17:57 37.30704 17.93149 34083 ft 433 kts 265°
2026-04-27 17:57 37.30016 17.85671 34086 ft 433 kts 265°
2026-04-27 17:58 37.29319 17.78160 34087 ft 433 kts 265°
2026-04-27 17:58 37.28622 17.70689 34085 ft 433 kts 265°
2026-04-27 17:59 37.27918 17.63198 34084 ft 432 kts 265°
2026-04-27 17:59 37.27212 17.55742 34085 ft 433 kts 265°
2026-04-27 18:00 37.26500 17.48270 34083 ft 433 kts 265°
2026-04-27 18:00 37.25778 17.40750 34084 ft 433 kts 265°
2026-04-27 18:01 37.25057 17.33287 34086 ft 433 kts 265°
2026-04-27 18:01 37.24326 17.25778 34086 ft 433 kts 265°
2026-04-27 18:02 37.23598 17.18352 34085 ft 432 kts 265°
2026-04-27 18:02 37.22863 17.10888 34086 ft 432 kts 265°
2026-04-27 18:03 37.22121 17.03417 34087 ft 432 kts 265°
2026-04-27 18:03 37.21377 16.95963 34083 ft 432 kts 264°
2026-04-27 18:04 37.20627 16.88515 34084 ft 432 kts 264°
2026-04-27 18:04 37.19873 16.81081 34088 ft 432 kts 264°
2026-04-27 18:05 37.19109 16.73606 34083 ft 432 kts 264°
2026-04-27 18:05 37.18308 16.66001 34081 ft 433 kts 263°
2026-04-27 18:06 37.17342 16.58569 34085 ft 433 kts 263°
2026-04-27 18:06 37.16365 16.51165 34081 ft 433 kts 263°
2026-04-27 18:07 37.15377 16.43724 34082 ft 433 kts 263°
2026-04-27 18:07 37.14386 16.36298 34076 ft 433 kts 263°
2026-04-27 18:08 37.13393 16.28891 34073 ft 433 kts 262°
2026-04-27 18:08 37.12392 16.21471 34071 ft 433 kts 262°
2026-04-27 18:09 37.11387 16.14053 34070 ft 433 kts 262°
2026-04-27 18:09 37.10378 16.06641 34068 ft 433 kts 262°
2026-04-27 18:10 37.09362 15.99204 34064 ft 434 kts 262°
2026-04-27 18:10 37.08338 15.91767 34071 ft 433 kts 262°
2026-04-27 18:11 37.07316 15.84355 34061 ft 434 kts 262°
2026-04-27 18:11 37.06282 15.76910 34066 ft 434 kts 262°
2026-04-27 18:12 37.05252 15.69527 34069 ft 434 kts 262°
2026-04-27 18:12 37.04209 15.62091 34059 ft 434 kts 262°
2026-04-27 18:13 37.03166 15.54678 34067 ft 434 kts 262°
2026-04-27 18:13 37.02117 15.47254 34059 ft 433 kts 262°
2026-04-27 18:14 37.01071 15.39899 34057 ft 432 kts 262°
2026-04-27 18:14 37.00015 15.32504 34070 ft 432 kts 261°
2026-04-27 18:15 36.98945 15.25047 34061 ft 433 kts 261°
2026-04-27 18:15 36.97878 15.17647 34072 ft 433 kts 261°
2026-04-27 18:16 36.96808 15.10244 34076 ft 433 kts 261°
2026-04-27 18:16 36.95725 15.02785 34083 ft 434 kts 261°
2026-04-27 18:17 36.94642 14.95379 34085 ft 433 kts 261°
2026-04-27 18:17 36.93555 14.87982 34087 ft 432 kts 261°
2026-04-27 18:18 36.92470 14.80630 34102 ft 432 kts 261°
2026-04-27 18:18 36.91378 14.73253 34094 ft 432 kts 261°
2026-04-27 18:19 36.90291 14.65944 34082 ft 432 kts 261°
2026-04-27 18:19 36.89189 14.58571 34084 ft 432 kts 261°
2026-04-27 18:20 36.88077 14.51189 34073 ft 432 kts 261°
2026-04-27 18:20 36.86973 14.43875 34075 ft 430 kts 261°
2026-04-27 18:21 36.86091 14.36498 34070 ft 430 kts 266°
2026-04-27 18:21 36.85553 14.29101 34063 ft 429 kts 266°
2026-04-27 18:22 36.85020 14.21727 34073 ft 429 kts 266°
2026-04-27 18:22 36.84480 14.14321 34067 ft 427 kts 266°
2026-04-27 18:23 36.83935 14.06955 34068 ft 429 kts 266°
2026-04-27 18:23 36.83384 13.99572 34068 ft 430 kts 266°
2026-04-27 18:24 36.82823 13.92134 34077 ft 428 kts 266°
2026-04-27 18:24 36.82264 13.84763 34061 ft 429 kts 266°
2026-04-27 18:25 36.81700 13.77395 34068 ft 427 kts 266°
2026-04-27 18:25 36.81135 13.70047 34071 ft 426 kts 266°
2026-04-27 18:26 36.80563 13.62711 34066 ft 426 kts 266°
2026-04-27 18:26 36.79989 13.55394 34066 ft 425 kts 266°
2026-04-27 18:27 36.79411 13.48076 34057 ft 426 kts 266°
2026-04-27 18:27 36.78830 13.40792 34069 ft 424 kts 266°
2026-04-27 18:28 36.78245 13.33504 34068 ft 425 kts 265°
2026-04-27 18:28 36.77650 13.26158 34063 ft 424 kts 265°
2026-04-27 18:29 36.77056 13.18876 34047 ft 424 kts 265°
2026-04-27 18:29 36.76458 13.11595 34076 ft 424 kts 265°
2026-04-27 18:30 36.75855 13.04309 34051 ft 422 kts 265°
2026-04-27 18:30 36.75250 12.97058 34050 ft 421 kts 265°
2026-04-27 18:31 36.74641 12.89797 34057 ft 421 kts 266°
2026-04-27 18:31 36.74029 12.82565 34069 ft 421 kts 265°
2026-04-27 18:32 36.73414 12.75359 34060 ft 420 kts 265°
2026-04-27 18:32 36.72793 12.68142 34064 ft 420 kts 265°
2026-04-27 18:33 36.72172 12.60951 34066 ft 420 kts 265°
2026-04-27 18:33 36.71541 12.53711 34027 ft 420 kts 266°
2026-04-27 18:34 36.70909 12.46505 34064 ft 419 kts 265°
2026-04-27 18:34 36.70273 12.39314 34056 ft 420 kts 265°
2026-04-27 18:35 36.69628 12.32070 34046 ft 420 kts 265°
2026-04-27 18:35 36.68983 12.24875 34056 ft 419 kts 265°
2026-04-27 18:36 36.68333 12.17669 34061 ft 418 kts 265°
2026-04-27 18:36 36.67679 12.10466 34066 ft 419 kts 265°
2026-04-27 18:37 36.67022 12.03292 34050 ft 419 kts 265°
2026-04-27 18:37 36.66359 11.96087 34058 ft 419 kts 265°
2026-04-27 18:38 36.65695 11.88946 34059 ft 419 kts 265°
2026-04-27 18:38 36.65019 11.81705 34048 ft 420 kts 265°
2026-04-27 18:39 36.64343 11.74542 34043 ft 419 kts 265°
2026-04-27 18:39 36.63662 11.67369 34045 ft 418 kts 265°
2026-04-27 18:40 36.63020 11.60213 34039 ft 417 kts 267°
2026-04-27 18:40 36.62828 11.53052 34041 ft 416 kts 272°
2026-04-27 18:41 36.63199 11.45893 34042 ft 416 kts 278°
2026-04-27 18:41 36.64131 11.38800 34025 ft 415 kts 283°
2026-04-27 18:42 36.65198 11.32989 34049 ft 415 kts 283°
2026-04-27 18:42 36.66724 11.24773 34046 ft 416 kts 283°
2026-04-27 18:43 36.68031 11.17752 34030 ft 416 kts 283°
2026-04-27 18:43 36.69320 11.10790 34049 ft 415 kts 283°
2026-04-27 18:44 36.70611 11.03801 34057 ft 415 kts 283°
2026-04-27 18:44 36.71906 10.96783 34050 ft 416 kts 283°
2026-04-27 18:45 36.73188 10.89780 34064 ft 417 kts 283°
2026-04-27 18:45 36.74464 10.82767 34062 ft 416 kts 283°
2026-04-27 18:46 36.75735 10.75744 34062 ft 416 kts 283°
2026-04-27 18:46 36.77001 10.68727 34050 ft 416 kts 283°
2026-04-27 18:47 36.78266 10.61718 34059 ft 416 kts 284°
2026-04-27 18:47 36.79540 10.54646 34054 ft 416 kts 284°
2026-04-27 18:48 36.80795 10.47638 34054 ft 416 kts 284°
2026-04-27 18:48 36.82041 10.40636 34058 ft 416 kts 284°
2026-04-27 18:49 36.83255 10.33558 34046 ft 416 kts 281°
2026-04-27 18:49 36.83835 10.26374 34045 ft 418 kts 274°
2026-04-27 18:50 36.83590 10.19097 34045 ft 420 kts 266°
2026-04-27 18:50 36.82513 10.11944 34049 ft 424 kts 258°
2026-04-27 18:51 36.80906 10.04865 34043 ft 424 kts 258°
2026-04-27 18:51 36.79275 9.97827 34046 ft 423 kts 258°
2026-04-27 18:52 36.77647 9.90826 34051 ft 423 kts 257°
2026-04-27 18:53 36.75191 9.80294 34038 ft 422 kts 257°
2026-04-27 18:53 36.73560 9.73328 34041 ft 422 kts 257°
2026-04-27 18:54 36.71914 9.66318 34044 ft 422 kts 257°
2026-04-27 18:54 36.70263 9.59306 34040 ft 422 kts 257°
2026-04-27 18:55 36.68616 9.52342 34048 ft 421 kts 257°
2026-04-27 18:55 36.66954 9.45337 34053 ft 422 kts 257°
2026-04-27 18:56 36.65300 9.38376 34039 ft 421 kts 257°
2026-04-27 18:56 36.63641 9.31424 34052 ft 421 kts 256°
2026-04-27 18:57 36.61959 9.24403 34052 ft 421 kts 256°
2026-04-27 18:57 36.60288 9.17460 34050 ft 420 kts 256°
2026-04-27 18:58 36.58605 9.10485 34039 ft 420 kts 256°
2026-04-27 18:58 36.56933 9.03575 34036 ft 421 kts 256°
2026-04-27 18:59 36.55238 8.96606 34036 ft 420 kts 256°
2026-04-27 18:59 36.53550 8.89663 34026 ft 420 kts 256°
2026-04-27 19:00 36.51862 8.82731 34014 ft 422 kts 256°
2026-04-27 19:00 36.50161 8.75775 34012 ft 421 kts 256°
2026-04-27 19:01 36.48452 8.68818 34027 ft 421 kts 256°
2026-04-27 19:01 36.46743 8.61884 34027 ft 422 kts 256°
2026-04-27 19:02 36.45022 8.54921 34029 ft 421 kts 256°
2026-04-27 19:02 36.43310 8.47989 34035 ft 421 kts 257°
2026-04-27 19:03 36.41944 8.40933 34040 ft 419 kts 262°
2026-04-27 19:03 36.41150 8.33832 34053 ft 418 kts 266°
2026-04-27 19:04 36.40921 8.26608 34062 ft 417 kts 271°
2026-04-27 19:04 36.41142 8.19376 34072 ft 418 kts 273°
2026-04-27 19:05 36.41399 8.12179 34064 ft 417 kts 273°
2026-04-27 19:05 36.41653 8.04981 34058 ft 418 kts 273°
2026-04-27 19:06 36.41904 7.97779 34048 ft 419 kts 273°
2026-04-27 19:06 36.42152 7.90571 34046 ft 419 kts 273°
2026-04-27 19:07 36.42396 7.83341 34041 ft 419 kts 273°
2026-04-27 19:07 36.42634 7.76148 34036 ft 420 kts 273°
2026-04-27 19:08 36.42867 7.68914 34033 ft 420 kts 273°
2026-04-27 19:08 36.43098 7.61665 34045 ft 419 kts 273°
2026-04-27 19:09 36.43323 7.54491 34044 ft 419 kts 273°
2026-04-27 19:09 36.43543 7.47262 34050 ft 419 kts 273°
2026-04-27 19:10 36.43762 7.40032 34054 ft 419 kts 273°
2026-04-27 19:10 36.43972 7.32824 34058 ft 419 kts 272°
2026-04-27 19:11 36.44181 7.25581 34060 ft 419 kts 272°
2026-04-27 19:11 36.44385 7.18356 34056 ft 419 kts 272°
2026-04-27 19:12 36.44585 7.11143 34068 ft 419 kts 272°
2026-04-27 19:12 36.44780 7.03949 34071 ft 420 kts 272°
2026-04-27 19:13 36.44971 6.96686 34084 ft 420 kts 272°
2026-04-27 19:13 36.45157 6.89464 34084 ft 420 kts 272°
2026-04-27 19:14 36.45338 6.82279 34080 ft 420 kts 272°
2026-04-27 19:14 36.45517 6.75028 34078 ft 419 kts 272°
2026-04-27 19:15 36.45688 6.67866 34073 ft 419 kts 272°
2026-04-27 19:15 36.45856 6.60647 34067 ft 420 kts 272°
2026-04-27 19:16 36.46021 6.53403 34061 ft 419 kts 272°
2026-04-27 19:16 36.46180 6.46201 34057 ft 419 kts 272°
2026-04-27 19:17 36.46335 6.38984 34057 ft 419 kts 272°
2026-04-27 19:17 36.46487 6.31767 34056 ft 419 kts 272°
2026-04-27 19:18 36.46634 6.24504 34054 ft 419 kts 272°
2026-04-27 19:18 36.46775 6.17267 34052 ft 420 kts 272°
2026-04-27 19:19 36.46912 6.10063 34043 ft 419 kts 272°
2026-04-27 19:19 36.47045 6.02849 34043 ft 419 kts 272°
2026-04-27 19:20 36.47170 5.95638 34040 ft 419 kts 272°
2026-04-27 19:20 36.47292 5.88407 34043 ft 419 kts 272°
2026-04-27 19:21 36.47416 5.81212 34060 ft 419 kts 272°
2026-04-27 19:21 36.47538 5.73972 34074 ft 419 kts 272°
2026-04-27 19:22 36.47650 5.66751 34091 ft 419 kts 272°
2026-04-27 19:22 36.47756 5.59542 34106 ft 420 kts 271°
2026-04-27 19:23 36.47857 5.52328 34116 ft 420 kts 272°
2026-04-27 19:23 36.47954 5.45057 34128 ft 422 kts 272°
2026-04-27 19:24 36.48048 5.37745 34129 ft 424 kts 271°
2026-04-27 19:24 36.48136 5.30482 34131 ft 424 kts 271°
2026-04-27 19:25 36.48219 5.23099 34129 ft 424 kts 271°
2026-04-27 19:25 36.48295 5.15827 34125 ft 424 kts 271°
2026-04-27 19:26 36.48367 5.08525 34107 ft 424 kts 271°
2026-04-27 19:26 36.48373 5.01223 34102 ft 424 kts 269°
2026-04-27 19:27 36.47899 4.93929 34097 ft 425 kts 265°
2026-04-27 19:27 36.47245 4.86656 34097 ft 426 kts 264°
2026-04-27 19:28 36.46581 4.79387 34098 ft 426 kts 264°
2026-04-27 19:28 36.45907 4.72077 34098 ft 426 kts 264°
2026-04-27 19:29 36.45229 4.64782 34098 ft 426 kts 264°
2026-04-27 19:29 36.44549 4.57533 34094 ft 426 kts 264°
2026-04-27 19:30 36.43862 4.50224 34094 ft 426 kts 264°
2026-04-27 19:30 36.43240 4.43641 34095 ft 427 kts 264°
2026-04-27 19:31 36.42546 4.36374 34093 ft 428 kts 264°
2026-04-27 19:31 36.41838 4.29005 34095 ft 428 kts 264°
2026-04-27 19:32 36.41124 4.21634 34090 ft 428 kts 264°
2026-04-27 19:32 36.40414 4.14328 34083 ft 428 kts 264°
2026-04-27 19:33 36.39699 4.07032 34080 ft 428 kts 264°
2026-04-27 19:33 36.38976 3.99694 34073 ft 428 kts 264°
2026-04-27 19:34 36.38254 3.92427 34066 ft 428 kts 264°
2026-04-27 19:34 36.37519 3.85087 34060 ft 428 kts 263°
2026-04-27 19:35 36.36786 3.77818 34051 ft 428 kts 263°
2026-04-27 19:35 36.36050 3.70485 34045 ft 429 kts 263°
2026-04-27 19:36 36.35313 3.63162 34046 ft 429 kts 263°
2026-04-27 19:36 36.34568 3.55854 34042 ft 430 kts 263°
2026-04-27 19:37 36.33812 3.48479 34045 ft 430 kts 263°
2026-04-27 19:37 36.33057 3.41173 34048 ft 430 kts 263°
2026-04-27 19:38 36.32294 3.33855 34051 ft 429 kts 263°
2026-04-27 19:38 36.31522 3.26488 34059 ft 430 kts 263°
2026-04-27 19:39 36.30748 3.19142 34055 ft 430 kts 262°
2026-04-27 19:39 36.29973 3.11849 34056 ft 430 kts 263°
2026-04-27 19:40 36.29190 3.04508 34057 ft 430 kts 263°
2026-04-27 19:40 36.28404 2.97185 34058 ft 430 kts 263°
2026-04-27 19:41 36.27613 2.89848 34064 ft 430 kts 262°
2026-04-27 19:41 36.26817 2.82536 34069 ft 430 kts 262°
2026-04-27 19:42 36.26011 2.75181 34073 ft 430 kts 262°
2026-04-27 19:42 36.25203 2.67864 34066 ft 430 kts 262°
2026-04-27 19:43 36.24396 2.60530 34056 ft 430 kts 262°
2026-04-27 19:43 36.23586 2.53205 34040 ft 431 kts 262°
2026-04-27 19:44 36.22768 2.45877 34031 ft 431 kts 262°
2026-04-27 19:44 36.21943 2.38546 34030 ft 432 kts 262°
2026-04-27 19:45 36.21108 2.31185 34021 ft 432 kts 262°
2026-04-27 19:45 36.20266 2.23807 34022 ft 432 kts 262°
2026-04-27 19:46 36.19425 2.16472 34018 ft 432 kts 261°
2026-04-27 19:46 36.18573 2.09102 34030 ft 432 kts 261°
2026-04-27 19:47 36.17720 2.01766 34037 ft 432 kts 261°
2026-04-27 19:47 36.16869 1.94468 34032 ft 432 kts 262°
2026-04-27 19:48 36.16019 1.87123 34029 ft 431 kts 261°
2026-04-27 19:48 36.15164 1.79807 34027 ft 432 kts 261°
2026-04-27 19:49 36.14296 1.72461 34014 ft 432 kts 261°
2026-04-27 19:49 36.13424 1.65145 34015 ft 432 kts 261°
2026-04-27 19:50 36.12539 1.57794 34013 ft 433 kts 260°
2026-04-27 19:50 36.11228 1.50573 34020 ft 433 kts 254°
2026-04-27 19:51 36.09265 1.43559 33361 ft 433 kts 248°
2026-04-27 19:51 36.08077 1.40198 32825 ft 428 kts 247°
2026-04-27 19:51 36.06873 1.36859 32297 ft 424 kts 247°
2026-04-27 19:51 36.05669 1.33530 31713 ft 421 kts 246°
2026-04-27 19:52 36.04483 1.30252 31122 ft 419 kts 246°
2026-04-27 19:52 36.03693 1.28072 30697 ft 419 kts 246°
2026-04-27 19:52 36.02098 1.23673 29397 ft 429 kts 246°
2026-04-27 19:52 36.00856 1.20247 28094 ft 442 kts 246°
2026-04-27 19:53 35.98312 1.13241 26141 ft 452 kts 246°
2026-04-27 19:53 35.97010 1.09659 25520 ft 456 kts 246°
2026-04-27 19:53 35.95719 1.06115 24922 ft 459 kts 246°
2026-04-27 19:54 35.94384 1.02455 24316 ft 461 kts 246°
2026-04-27 19:54 35.93067 0.98848 23717 ft 463 kts 246°
2026-04-27 19:54 35.91754 0.95259 23123 ft 465 kts 246°
2026-04-27 19:54 35.90396 0.91550 22520 ft 466 kts 246°
2026-04-27 19:55 35.89061 0.87907 21943 ft 465 kts 246°
2026-04-27 19:55 35.87739 0.84304 21379 ft 461 kts 246°
2026-04-27 19:55 35.86424 0.80725 20927 ft 456 kts 246°
2026-04-27 19:55 35.85097 0.77122 20573 ft 448 kts 246°
2026-04-27 19:56 35.83821 0.73658 20239 ft 440 kts 246°
2026-04-27 19:56 35.82538 0.70177 19992 ft 441 kts 246°
2026-04-27 19:56 35.81462 0.66684 19732 ft 441 kts 255°
2026-04-27 19:56 35.80854 0.62980 19447 ft 436 kts 260°
2026-04-27 19:57 35.80390 0.59315 19076 ft 431 kts 261°
2026-04-27 19:57 35.79935 0.55697 18924 ft 431 kts 261°
2026-04-27 19:57 35.79445 0.52005 18783 ft 432 kts 261°
2026-04-27 19:57 35.78940 0.48380 18650 ft 432 kts 260°
2026-04-27 19:58 35.78421 0.44772 18547 ft 428 kts 260°
2026-04-27 19:58 35.77892 0.41180 18245 ft 418 kts 260°
2026-04-27 19:58 35.77374 0.37705 17557 ft 417 kts 260°
2026-04-27 19:58 35.76842 0.34180 16941 ft 413 kts 259°
2026-04-27 19:59 35.76320 0.30732 16700 ft 400 kts 259°
2026-04-27 19:59 35.75827 0.27493 16408 ft 391 kts 259°
2026-04-27 19:59 35.75320 0.24176 15817 ft 389 kts 259°
2026-04-27 19:59 35.74820 0.20911 15089 ft 391 kts 259°
2026-04-27 20:00 35.74313 0.17603 14350 ft 392 kts 259°
2026-04-27 20:00 35.73808 0.14310 13641 ft 393 kts 259°
2026-04-27 20:00 35.73310 0.11074 13224 ft 386 kts 260°
2026-04-27 20:00 35.72815 0.07859 12740 ft 380 kts 260°
2026-04-27 20:01 35.72324 0.04673 12016 ft 381 kts 260°
2026-04-27 20:01 35.71827 0.01459 11244 ft 385 kts 260°
2026-04-27 20:01 35.71325 -0.01789 10486 ft 387 kts 260°
2026-04-27 20:01 35.70832 -0.04965 10087 ft 378 kts 260°
2026-04-27 20:02 35.70347 -0.08081 9844 ft 366 kts 260°
2026-04-27 20:02 35.69873 -0.11121 9723 ft 351 kts 260°
2026-04-27 20:02 35.69418 -0.14028 9584 ft 338 kts 260°
2026-04-27 20:02 35.68986 -0.16776 9452 ft 326 kts 260°
2026-04-27 20:03 35.68561 -0.19487 9317 ft 314 kts 259°
2026-04-27 20:03 35.68156 -0.22057 9189 ft 303 kts 260°
2026-04-27 20:03 35.67760 -0.24560 9070 ft 292 kts 260°
2026-04-27 20:03 35.67378 -0.26978 8931 ft 285 kts 260°
2026-04-27 20:04 35.67003 -0.29362 8831 ft 286 kts 259°
2026-04-27 20:04 35.66629 -0.31739 8716 ft 286 kts 259°
2026-04-27 20:04 35.66249 -0.34149 8611 ft 287 kts 259°
2026-04-27 20:04 35.65994 -0.35758 8544 ft 288 kts 259°
2026-04-27 20:05 35.65483 -0.38984 8382 ft 288 kts 259°
2026-04-27 20:05 35.65102 -0.41384 8263 ft 289 kts 259°
2026-04-27 20:05 35.64717 -0.43806 8144 ft 288 kts 259°
2026-04-27 20:05 35.64336 -0.46199 7998 ft 279 kts 259°
2026-04-27 20:06 35.63971 -0.48495 7988 ft 270 kts 259°
2026-04-27 20:06 35.63614 -0.50730 7981 ft 261 kts 259°
2026-04-27 20:06 35.63265 -0.52902 7983 ft 257 kts 258°
2026-04-27 20:06 35.62921 -0.55047 7986 ft 257 kts 259°
2026-04-27 20:07 35.62576 -0.57192 7951 ft 257 kts 259°
2026-04-27 20:07 35.62230 -0.59347 7831 ft 257 kts 259°
2026-04-27 20:07 35.61883 -0.61511 7712 ft 258 kts 259°
2026-04-27 20:07 35.61525 -0.63692 7587 ft 259 kts 256°
2026-04-27 20:08 35.60867 -0.65707 7436 ft 255 kts 238°
2026-04-27 20:08 35.59791 -0.67394 7388 ft 245 kts 226°
2026-04-27 20:08 35.58595 -0.68876 7315 ft 246 kts 224°
2026-04-27 20:08 35.57362 -0.70368 7192 ft 246 kts 224°
2026-04-27 20:09 35.56157 -0.71832 7070 ft 245 kts 224°
2026-04-27 20:09 35.54945 -0.73316 6947 ft 245 kts 225°
2026-04-27 20:09 35.53736 -0.74803 6822 ft 245 kts 225°
2026-04-27 20:09 35.52528 -0.76296 6696 ft 245 kts 224°
2026-04-27 20:10 35.51334 -0.77775 6544 ft 243 kts 224°
2026-04-27 20:10 35.50161 -0.79226 6340 ft 238 kts 224°
2026-04-27 20:10 35.49008 -0.80652 6131 ft 233 kts 223°
2026-04-27 20:10 35.47862 -0.82065 5911 ft 228 kts 223°
2026-04-27 20:11 35.46771 -0.83419 5681 ft 217 kts 226°
2026-04-27 20:11 35.45981 -0.84919 5515 ft 209 kts 249°
2026-04-27 20:11 35.45715 -0.86647 5339 ft 204 kts 271°
2026-04-27 20:11 35.45954 -0.88318 5106 ft 200 kts 292°
2026-04-27 20:12 35.46656 -0.89788 4994 ft 202 kts 314°
2026-04-27 20:12 35.47350 -0.90578 4997 ft 203 kts 328°
2026-04-27 20:12 35.49057 -0.91453 4979 ft 198 kts 355°
2026-04-27 20:12 35.50401 -0.91444 4799 ft 192 kts 15°
2026-04-27 20:13 35.51641 -0.90893 4472 ft 190 kts 35°
2026-04-27 20:13 35.52652 -0.89877 4234 ft 184 kts 53°
2026-04-27 20:13 35.53350 -0.88570 4224 ft 182 kts 65°
2026-04-27 20:13 35.53852 -0.87147 4104 ft 181 kts 70°
2026-04-27 20:14 35.54314 -0.85713 3973 ft 180 kts 70°
2026-04-27 20:14 35.54772 -0.84309 3752 ft 173 kts 70°
2026-04-27 20:14 35.55212 -0.82986 3563 ft 164 kts 69°
2026-04-27 20:14 35.55634 -0.81736 3374 ft 154 kts 69°
2026-04-27 20:15 35.56039 -0.80548 3148 ft 147 kts 69°
2026-04-27 20:15 35.56426 -0.79408 2925 ft 145 kts 69°
2026-04-27 20:15 35.56817 -0.78261 2713 ft 145 kts 69°
2026-04-27 20:15 35.57206 -0.77126 2523 ft 143 kts 68°
2026-04-27 20:16 35.57595 -0.76005 2295 ft 141 kts 68°
2026-04-27 20:16 35.57978 -0.74907 2076 ft 141 kts 68°
2026-04-27 20:16 35.58361 -0.73808 1867 ft 140 kts 68°
2026-04-27 20:16 35.58745 -0.72701 1720 ft 140 kts 68°
2026-04-27 20:17 35.59128 -0.71595 1570 ft 140 kts 67°
2026-04-27 20:17 35.59508 -0.70504 1425 ft 139 kts 67°
2026-04-27 20:17 35.59887 -0.69409 1275 ft 139 kts 67°
2026-04-27 20:17 35.60136 -0.68688 1171 ft 139 kts 65°
2026-04-27 20:18 35.60610 -0.67217 866 ft 138 kts 64°
2026-04-27 20:18 35.61004 -0.66137 647 ft 138 kts 65°
2026-04-27 20:18 35.61368 -0.65060 496 ft 137 kts 65°
2026-04-27 20:18 35.61734 -0.63989 317 ft 135 kts 63°
2026-04-27 20:19 35.62071 -0.63015 298 ft 102 kts 67°
2026-04-27 20:19 35.62278 -0.62410 297 ft 53 kts 68°
2026-04-27 20:19 35.62410 -0.62025 296 ft 45 kts 66°
2026-04-27 20:19 35.62527 -0.61682 296 ft 40 kts 66°
2026-04-27 20:20 35.62631 -0.61378 297 ft 36 kts 67°
2026-04-27 20:20 35.62722 -0.61112 296 ft 32 kts 68°
2026-04-27 20:20 35.62800 -0.60883 296 ft 24 kts 66°
2026-04-27 20:20 35.62854 -0.60723 296 ft 15 kts 67°
2026-04-27 20:21 35.62880 -0.60640 295 ft 7 kts 78°
2026-04-27 20:21 35.62881 -0.60589 295 ft 5 kts 99°
2026-04-27 20:21 35.62867 -0.60549 295 ft 4 kts 123°
2026-04-27 20:21 35.62845 -0.60523 295 ft 4 kts 146°
2026-04-27 20:22 35.62810 -0.60503 295 ft 6 kts 157°
2026-04-27 20:22 35.62751 -0.60473 294 ft 13 kts 156°
2026-04-27 20:22 35.62664 -0.60428 294 ft 13 kts 156°
2026-04-27 20:22 35.62577 -0.60385 295 ft 13 kts 158°
2026-04-27 20:23 35.62517 -0.60357 296 ft 6 kts 165°
2026-04-27 20:23 35.62480 -0.60351 296 ft 5 kts 180°
2026-04-27 20:23 35.62445 -0.60355 297 ft 4 kts 185°
2026-04-27 20:23 35.62369 -0.60362 297 ft 15 kts 185°
2026-04-27 20:24 35.62310 -0.60371 298 ft 5 kts 195°
2026-04-27 20:24 35.62286 -0.60386 298 ft 2 kts 225°
2026-04-27 20:24 35.62275 -0.60413 298 ft 4 kts 246°
2026-04-27 20:24 35.62223 -0.60564 301 ft 28 kts 246°
2026-04-27 20:25 35.62153 -0.60768 304 ft 23 kts 246°
2026-04-27 20:25 35.62090 -0.60949 302 ft 23 kts 246°
2026-04-27 20:25 35.62053 -0.61061 300 ft 12 kts 246°
2026-04-27 20:25 35.62031 -0.61124 298 ft 6 kts 243°
2026-04-27 20:26 35.62013 -0.61164 297 ft 4 kts 238°
2026-04-27 20:26 35.61999 -0.61188 296 ft 1 kts 225°
2026-04-27 20:26 35.61991 -0.61189 296 ft 1 kts 171°
2026-04-27 20:26 35.61978 -0.61179 296 ft 2 kts 142°
2026-04-27 20:27 35.61955 -0.61158 296 ft 9 kts 142°
2026-04-27 20:27 35.61922 -0.61127 297 ft 3 kts 142°
2026-04-27 20:27 35.61920 -0.61125 297 ft 0 kts 142°